AirNav   Air Wisconsin Up To $57,000 Bonus
 
 828 users online  

KFUL Fullerton Municipal Airport
Fullerton, California, USA

GOING TO FULLERTON?


FAA INFORMATION EFFECTIVE 02 JANUARY 2020

Location

FAA Identifier: FUL
Lat/Long: 33-52-19.2510N 117-58-47.2230W
33-52.320850N 117-58.787050W
33.8720142,-117.9797842
(estimated)
Elevation: 96 ft. / 29.3 m (surveyed)
Variation: 14E (1985)
From city: 3 miles W of FULLERTON, CA
Time zone: UTC -8 (UTC -7 during Daylight Saving Time)
Zip code: 92833

Airport Operations

Airport use: Open to the public
Activation date: 04/1940
Control tower: yes
ARTCC: LOS ANGELES CENTER
FSS: RIVERSIDE FLIGHT SERVICE STATION
NOTAMs facility: FUL (NOTAM-D service available)
Attendance: 0700-2100
Pattern altitude: 1100 ft. MSL
Wind indicator: lighted
Segmented circle: yes
Lights: WHEN ATCT CLSD ACTVT RLLS RWY 24; REIL RWY 06 & 24; PVASI RWY 06; PAPI RWY 24; MIRL RWY 06/24; TWY LGTS - CTAF.
Beacon: white-green (lighted land airport)
Operates sunset to sunrise.

Airport Communications

CTAF: 119.1
UNICOM: 122.95
ATIS: 125.05
WX ASOS: PHONE 714-870-1372
FULLERTON GROUND: 121.8 [0700-2100]
FULLERTON TOWER: 119.1 [0700-2100]
SOCAL APPROACH: 125.35
SOCAL DEPARTURE: 125.35
HAWWC DP: 125.35
WX ASOS at LGB (9 nm W): PHONE 562-424-0572
WX ASOS at SNA (13 nm SE): PHONE 714-424-0590
WX AWOS-3PT at EMT (13 nm N): 118.75 ((626) 444-1107)
WX AWOS-3PT at CPM (13 nm W): 127.150 (310-631-4958)
WX AWOS-3PT at POC (16 nm NE): 124.4 (909-596-1523)
WX ASOS at HHR (18 nm W): PHONE 310-973-8930
WX ASOS at CNO (18 nm E): PHONE 909-393-5823
WX AWOS-3PT at AJO (19 nm E): 132.175 (951-340-4764)
  • FOR CLNC DEL WHEN ATCT CLSD CALL SOCAL APCH (800) 448-3724.
  • SANTA ANA RCO 122.45 (RIVERSIDE RADIO)

Nearby radio navigation aids

VOR radial/distance  VOR name  Freq  Var
SLIr020/6.5SEAL BEACH VORTAC115.7015E
POMr203/15.7POMONA VORTAC110.4015E
ELBr299/17.1EL TORO VOR/DME117.2014E
PDZr248/22.6PARADISE VORTAC112.2015E
LAXr084/22.8LOS ANGELES VORTAC113.6015E
SMOr094/25.1SANTA MONICA VOR/DME110.8015E
RALr245/(26.9)RIVERSIDE VOR112.4014E
VNYr115/33.0VAN NUYS VOR/DME113.1015E
SXCr021/37.0SANTA CATALINA VORTAC111.4015E

Airport Services

Fuel available: 100LL JET-A
Parking: tiedowns
Airframe service: MAJOR
Powerplant service: MAJOR
Bottled oxygen: HIGH
Bulk oxygen: HIGH

Runway Information

Runway 6/24

Dimensions: 3121 x 75 ft. / 951 x 23 m
Surface: asphalt, in good condition
Weight bearing capacity: 
Single wheel: 12.5
Runway edge lights: medium intensity
RUNWAY 6  RUNWAY 24
Latitude: 33-52.263450N33-52.379333N
Longitude: 117-59.088333W117-58.487350W
Elevation: 84.9 ft.95.5 ft.
Traffic pattern: leftright
Runway heading: 063 magnetic, 077 true243 magnetic, 257 true
Displaced threshold: 427 ft.253 ft.
Markings: basic, in good conditionnonprecision, in good condition
Visual slope indicator: pulsating/steady burning VASI on left (4.00 degrees glide path)4-light PAPI on left (4.00 degrees glide path)
Approach lights: RLLS
Runway end identifier lights: yesyes
Touchdown point: yes, no lightsyes, no lights
Instrument approach: LOC/DME
Obstructions: none
+8 FT FENCE AT 55 FT & +15 FT STREET AT 65 FT FM APCH END RY 06.
23 ft. rr, 225 ft. from runway, 80 ft. left and right of centerline, 1:1 slope to clear
+8 FT FENCE AT 15 FT & +15 FT STREET AT 17 FT; POLE & RR AT 100 FT FM APCH END RY 24.

Helipad H1

Dimensions: 37 x 37 ft. / 11 x 11 m
Surface: concrete
Traffic pattern: leftleft

Airport Ownership and Management from official FAA records

Ownership: Publicly-owned
Owner: CITY OF FULLERTON
303 W. COMMONWEALTH AVE
FULLERTON, CA 92832
Phone 714-738-6310
Manager: BRENDAN O'REILLY
4011 W COMMONWEALTH AVE
FULLERTON, CA 92833-2537
Phone 714-738-6323

Airport Operational Statistics

Aircraft based on the field: 114
Single engine airplanes: 105
Multi engine airplanes: 5
Helicopters: 4
    
Aircraft operations: avg 189/day *
60% transient general aviation
39% local general aviation
<1% air taxi
<1% military
<1% commercial
* for 12-month period ending 31 August 2019

Additional Remarks

ARPT HAS NOISE ABATEMENT PROCEDURES CTC AMGR (714) 738-6323.
RY 06 CALM WIND RY.
PORTIONS OF TWY A BTN INTERSECTION F & WEST END NOT VSBL FM ATCT.
FOR NOISE ABATEMENT RY 06 PREFERRED FOR TKOF; FOLLOW RR TRACKS TO EAST WITH NO TURNS BLO 1000 FT AGL. RY 24 DEP CLIMB TO 700 FT AGL PRIOR TO TURNS.
(84) SEGMENTED CIRCLE LGTD.
LGTD 750 FT TOWER 1.75 MILES WEST OF ARPT ON HEADING OF 285 DEG FROM ARPT.

Instrument Procedures

NOTE: All procedures below are presented as PDF files. If you need a reader for these files, you should download the free Adobe Reader.

NOT FOR NAVIGATION. Please procure official charts for flight.
FAA instrument procedures published for use from 02 January 2020 at 0901Z to 30 January 2020 at 0900Z.

 
STARs - Standard Terminal Arrivals
KAYOH SEVEN   download (304KB)
 
IAPs - Instrument Approach Procedures
RNAV (GPS) RWY 24   download (220KB)
LOC/DME RWY 24   download (252KB)
VOR-A   download (201KB)
NOTE: Special Alternate Minimums apply   download (18KB)
 
Departure Procedures
ANAHEIM ONE   2 pages: [1] [2] (363KB)
HAWWC THREE (RNAV)   download (177KB)
NOTE: Special Take-Off Minimums/Departure Procedures apply   download (132KB)

Other nearby airports with instrument procedures:

KSLI - Los Alamitos Army Airfield (6 nm SW)
KLGB - Long Beach Airport (Daugherty Field) (9 nm W)
KSNA - John Wayne-Orange County Airport (13 nm SE)
KEMT - San Gabriel Valley Airport (13 nm N)
KPOC - Brackett Field Airport (16 nm NE)
KHHR - Jack Northrop Field/Hawthorne Municipal Airport (18 nm W)
KCNO - Chino Airport (18 nm E)
KTOA - Zamperini Field Airport (18 nm W)
KAJO - Corona Municipal Airport (19 nm E)
 
Loc | Ops | Rwys | IFR | FBO | Links
Com | Nav | Svcs | Stats | Notes

San Bernardino International Airport Authority
 
Area around KFUL (Fullerton Municipal Airport)
 
Road maps at: MapQuest Bing Google
 
Aerial photo
WARNING: Photo may not be current or correct
Aerial photo of KFUL (Fullerton Municipal Airport)
Photo courtesy of focalflight.com
Photo taken 09-Feb-2017
looking west.

Do you have a better or more recent aerial photo of Fullerton Municipal Airport that you would like to share? If so, please send us your photo.

 
Sectional chart

 
Airport diagram
CAUTION: Diagram may not be current
Diagram of KFUL (Fullerton Municipal Airport)
Download PDF
of official airport diagram from the FAA

 
Airport distance calculator
Flying to Fullerton Municipal Airport? Find the distance to fly.

From to KFUL

Sunrise and sunset
Times for 27-Jan-2020
 Local
(UTC-8)
 Zulu
(UTC)
Morning civil twilight06:2714:27
Sunrise06:5314:53
Sunset17:1701:17
Evening civil twilight17:4301:43

Current date and time
Zulu (UTC)  27-Jan-2020 09:35:07
Local (UTC-8)  27-Jan-2020 01:35:07
 
METAR
KFUL 270917Z AUTO 09004KT 4SM HZ BKN023 11/08 A3016 RMK AO2 T01110083
KSLI 
7nm SW 
270918Z AUTO 07004KT 8SM SCT017 10/10 A3016 RMK AO2 SLP216
KLGB 
9nm W 
270853Z AUTO 00000KT 4SM BR CLR 11/08 A3017 RMK AO2 SLP215 T01060083 50002
KEMT 
12nm N 
270349Z 00000KT 3SM HZ OVC016 13/10 A3015
KSNA 
14nm SE 
270853Z AUTO 00000KT 6SM HZ FEW023 12/08 A3017 RMK AO2 SLP216 T01170078 58002
KCQT 
17nm NW 
270852Z AUTO 10003KT 4SM HZ CLR 13/10 A3016 RMK AO2 SLP211 T01330100 50000
KPOC 
17nm NE 
270447Z 00000KT 4SM BR OVC012 12/09 A3016 RMK LAST
KTOA 
18nm W 
270347Z 00000KT 10SM FEW015 11/11 A3014
KHHR 
18nm W 
270853Z AUTO 00000KT 5SM HZ CLR 12/09 A3017 RMK AO2 SLP215 T01220094 50004 $
KAJO 
19nm E 
270856Z AUTO 13003KT 6SM BR OVC019 09/08 A3018 RMK AO2 SLP219 T00890083 55000
TAF
KSLI 
7nm SW 
270500Z 2705/2811 VRB06KT 9999 FEW025 QNH3013INS BECMG 2708/2709 VRB06KT 9000 BR BKN012 OVC030 QNH3012INS TEMPO 2709/2716 4800 BR BKN007 BECMG 2716/2717 VRB06KT 9999 NSW SCT020 QNH3011INS BECMG 2721/2722 VRB06KT 9999 SKC QNH3014INS TX16/2720Z TN07/2712Z
KLGB 
9nm W 
270800Z 2708/2806 VRB03KT 4SM BR BKN017 FM271700 VRB03KT P6SM SKC FM271900 19008KT P6SM SKC FM272300 29008KT P6SM SKC FM280400 VRB03KT P6SM SKC
KSNA 
14nm SE 
270520Z 2706/2806 VRB05KT P6SM SCT025 FM270900 VRB04KT P6SM BKN018 FM271500 VRB05KT P6SM FEW020
NOTAMs
Click for the latest NOTAMs
NOTAMs are issued by the DoD/FAA and will open in a separate window not controlled by AirNav.

 

 
 

FBO, Fuel Providers, and Aircraft Ground Support

  
 Business Name 
 
 Contact 
 
 Services / Description 
 
Fuel Prices
 
Comments
  
General Aviation Co., Inc.
No ramp fees
UNICOM 122.95
714-526-6611
714-526-0921
[web site]
[email]
At General Aviation Co, Inc., we strive to maintain the excellent and personalized customer service we are known for.

We offer:
-100LL Avgas, Jet-A Fuel
-Aircraft Maintenance
-Executive Hangar Space, complete with staging/fueling service
-One night free with fuel purchase (no minimum)
-No landing fees, no ramp fees
-Low fuel prices
-Rental cars also available (Hertz, Enterprise, AVIS)
-Crew Car available (first come, first serve)
-Line Service Personnel certified by NATA Safety 1st.

Not taking fuel this time?
Stop by for a cup of Starbucks coffee, or one of our cookies, baked in house!
More info and photos of General Aviation Co., Inc.
 
NATA Safety 1st   U.S. Government AIR Card   WingPoints™ Rewards   Crew car   Avis   Enterprise Rent-A-Car   Hertz   Wireless Internet Access (WiFi)   National Business Aviation Association  
 
Phillips 66
100LL Jet A
FS $5.09 $5.48 
SS $5.09 $5.08 
 Updated 23-Jan-2020
 
   7 read write
Aviation Facilities, Inc. 714-870-9931
714-773-0741
[web site]
Aviation fuel, Aircraft parking (ramp or tiedown), Passenger terminal and lounge, Pilot school (FAR Part 141), Aerial tours / aerial sightseeing, ...

More info about Aviation Facilities, Inc.
EPIC
100LL
PA $5.20 
PS $4.95 
 Updated 24-Jan-2020
 
   1 read write
FS=Full service
PA=Pilot-Assisted
PS=Pump service
SS=Self service
Update Fuel Prices
 

Aviation Businesses, Services, and Facilities

  
 Business Name 
 
 Contact 
 
 Services / Description 
 
Distance
 
Comments
  
Leading Edge Avionics
Leading Edge Avionics
toll-free 1-855-955-6151
[web site]
[email]

Like us on facebook See us on instagram Follow us on twitter
Leading Edge Avionics is a FAA Certified Part 145 Repair Station (137R236D) that provides outstanding avionics repair and installation services for all General Aviation aircraft from business jets to helicopters to single engine airplanes. We are committed to delivering our customers with services that ensure uncompromised safety and the highest quality of workmanship and reliability, while exceeding our clients' expectations on all levels. 24/7 AOG Service is also available at all Southern California airports, so call us at (855) 955-6151 and let us exceed all your service expectations!
More info and photos of Leading Edge Avionics
located at KSNA  
   write
Ben's Motorworks 714-396-6090
[web site]
[email]
Aircraft maintenance, Aircraft modifications, Aircraft parts, Aircraft sales / leasing / brokerage, Aircraft management

More info about Ben's Motorworks
on airport  
   write
 

Would you like to see your business listed on this page?

 If your business provides an interesting product or service to pilots, flight crews, aircraft, or users of the Fullerton Municipal Airport, you should consider listing it here.  To start the listing process, click on the button below
 
Add a business
 

Other Pages about Fullerton Municipal Airport

www.ci.fullerton.ca.us/...
 
Update a link
 
Copyright © AirNav, LLC. All rights reserved. Privacy Policy  Contact